CZ-6A DEB

Satellite information

Favourite Embed

Satellite Type and Status

DEBRISIN ORBIT

Key statistics

Satellite CZ-6A DEB at a glance.

Uptime

440

Days in orbit

Revolutions

≈ 14.2

Per day

Orbit

LEO

Low Earth Orbit

Inclination

89.1

Latest

Satellite identification and parameters

Extended collection of information and parameters for CZ-6A DEB.

Object identification

Identified? True

Debris? True

Object name: CZ-6A DEB

International designator: 2024-140UF

Object number (NORAD): 61318

Object ID (CCSDS): 61318

Country: PEOPLES REPUBLIC OF CHINA (PRC)

Current information (Y/N): Y

RCS size: SMALL

Orbital parameters

Period: 101.298 minutes

Inclination: 89.1226 deg

SMA: 7198.249 km

Apoapsis: 847.771 km

Periapsis: 792.456 km

RAAN: 308.1557 deg

Eccentricy: 0.00384222

Argument of periapsis: 254.7909 deg

Mean anomaly: 104.9032 deg

Mean motion: 14.21551164 rev/day

Mean motion (dot): 0.00002405 rev/day2

B* drag term: 0.0010845846 1/REarth

Two-line elements (TLE)

Creation date: Oct. 20, 2025, 2:10 a.m.

Reference frame: TEME

Reference center: EARTH

Epoch: Oct. 19, 2025, 10:30 p.m. UTC

TLE line 0: 0 CZ-6A DEB

TLE line 1: 1 61318U 24140UF 25292.93775289 .00002405 00000-0 10846-2 0 9992

TLE line 2: 2 61318 89.1226 308.1557 0038422 254.7909 104.9032 14.21551164 59275

Live tracking on map

Real-time ground track for satellite CZ-6A DEB.

In-orbit conjunctions

A list of the most updated potential collisions computed for object CZ-6A DEB.

Target Orbit TCA Probability of collision Miss distance Type
CZ-6A DEB LEO 2025-10-19 11:05:58 0.0002035209 159.0 (m) DEBRIS
FENGYUN 1C DEB SSO 2025-03-05 03:54:14 0.0001116464 298.0 (m) DEBRIS
CZ-6A DEB SSO 2025-02-19 18:49:49 0.0001237362 515.0 (m) DEBRIS
CZ-6A DEB LEO 2025-01-01 15:46:35 0.0006135071 521.0 (m) DEBRIS
COSMOS 2251 DEB LEO 2024-12-06 03:10:38 0.0001402879 673.0 (m) DEBRIS

Associated space launch

18 Low Earth Orbit communication satellites with Ku, Q and V band payloads for the G60 constellation operated by Shanghai Spacecom Satellite Technology (SSST) with funding backed by the Shanghai local government. Initial constellation will consist of 1296 satellites by 2027 with long term plans to expand it to 12000 satellites.

CZ-6A DEB was lifted into orbit during the mission ‘Long March 6A | G60 Polar Group 01’, on board a Long March 6A space rocket.

The launch took place on Aug. 6, 2024, 6:42 a.m. from Launch Complex 9A.

For more information about the launch, click the button.

Launch to space Long March 6A | G60 Polar Group 01
Long March 6A | G60 Polar Group 01

Agency: N/A

Status: Launch Successful

Launch date: Aug. 6, 2024, 6:42 a.m. UTC

Rocket: Long March 6A

Launch pad: Launch Complex 9A

Location: Taiyuan Satellite Launch Center, People's Republic of China

...

Latest news about this satellite

News about space launch
Brightness of first Chinese broadband constellation satellites alarms astronomers

The first satellites of a Chinese broadband constellation are significantly brighter than those of Western systems, posing a new challenge for astronomers.

News about space launch
Chinese rocket stage breaks up into cloud of more than 700 pieces of space debris

HELSINKI — A Chinese Long March 6A rocket’s upper stage has fragmented into a cloud of over 700 pieces of space debris, adding to concerns about long-term orbital safety. China […]

News about space launch
China's Thousand Sails Megaconstellation Kicks Off with Dangerous Debris Field

China's Thousand Sails Megaconstellation Kicks Off with Dangerous Debris Field


Newsletter sign-up

Weekly statistics, charts and insights to help you stay on top of the space industry.